Location: Fort Worth, Tx
(32.7431°N, 97.3695°W)
Time: 11:08:30
(UTC-04:00)

Courier 1B - Pass Details

Date: 02 March 2024
Orbit: 962 x 1208 km, 28.3° (Epoch: 24 April)

Event Time Altitude Azimuth Distance (km) Brightness Sun altitude
Rises 20:16:16 0° 208° (SSW) 3,967 11.1 -10.9°
Reaches altitude 10° 20:20:20 10° 188° (S) 2,959 10.1 -11.8°
Maximum altitude 20:24:30 16° 152° (SSE) 2,472 9.4 -12.7°
Enters shadow 20:27:47 12° 122° (ESE) 2,722 9.3 -13.4°
